Index of /20260509/WXO-DD/model_rdps/10km/06/044
Name Last modified Size Description
Parent Directory -
20260509T06Z_MSC_RDPS_AbsoluteVorticity_IsbL-0250_RLatLon0.09_PT044H.grib2 2026-05-09 08:57 632K
20260509T06Z_MSC_RDPS_AbsoluteVorticity_IsbL-0500_RLatLon0.09_PT044H.grib2 2026-05-09 08:57 574K
20260509T06Z_MSC_RDPS_AbsoluteVorticity_IsbL-0700_RLatLon0.09_PT044H.grib2 2026-05-09 08:57 626K
20260509T06Z_MSC_RDPS_AbsoluteVorticity_IsbL-0850_RLatLon0.09_PT044H.grib2 2026-05-09 08:57 777K
20260509T06Z_MSC_RDPS_AirTemp_AGL-120m_RLatLon0.09_PT044H.grib2 2026-05-09 08:57 370K
20260509T06Z_MSC_RDPS_AirTemp_AGL-2m_RLatLon0.09_PT044H.grib2 2026-05-09 08:57 623K
20260509T06Z_MSC_RDPS_AirTemp_AGL-40m_RLatLon0.09_PT044H.grib2 2026-05-09 08:57 382K
20260509T06Z_MSC_RDPS_AirTemp_AGL-80m_RLatLon0.09_PT044H.grib2 2026-05-09 08:57 374K
20260509T06Z_MSC_RDPS_AirTemp_IsbL-0001_RLatLon0.09_PT044H.grib2 2026-05-09 08:57 304K
20260509T06Z_MSC_RDPS_AirTemp_IsbL-0005_RLatLon0.09_PT044H.grib2 2026-05-09 08:57 382K
20260509T06Z_MSC_RDPS_AirTemp_IsbL-0010_RLatLon0.09_PT044H.grib2 2026-05-09 08:57 301K
20260509T06Z_MSC_RDPS_AirTemp_IsbL-0020_RLatLon0.09_PT044H.grib2 2026-05-09 08:57 319K
20260509T06Z_MSC_RDPS_AirTemp_IsbL-0030_RLatLon0.09_PT044H.grib2 2026-05-09 08:57 341K
20260509T06Z_MSC_RDPS_AirTemp_IsbL-0050_RLatLon0.09_PT044H.grib2 2026-05-09 08:57 310K
20260509T06Z_MSC_RDPS_AirTemp_IsbL-0100_RLatLon0.09_PT044H.grib2 2026-05-09 08:57 391K
20260509T06Z_MSC_RDPS_AirTemp_IsbL-0150_RLatLon0.09_PT044H.grib2 2026-05-09 08:57 410K
20260509T06Z_MSC_RDPS_AirTemp_IsbL-0175_RLatLon0.09_PT044H.grib2 2026-05-09 08:57 404K
20260509T06Z_MSC_RDPS_AirTemp_IsbL-0200_RLatLon0.09_PT044H.grib2 2026-05-09 08:57 409K
20260509T06Z_MSC_RDPS_AirTemp_IsbL-0225_RLatLon0.09_PT044H.grib2 2026-05-09 08:57 413K
20260509T06Z_MSC_RDPS_AirTemp_IsbL-0250_RLatLon0.09_PT044H.grib2 2026-05-09 08:57 426K
20260509T06Z_MSC_RDPS_AirTemp_IsbL-0275_RLatLon0.09_PT044H.grib2 2026-05-09 08:57 407K
20260509T06Z_MSC_RDPS_AirTemp_IsbL-0300_RLatLon0.09_PT044H.grib2 2026-05-09 08:57 438K
20260509T06Z_MSC_RDPS_AirTemp_IsbL-0350_RLatLon0.09_PT044H.grib2 2026-05-09 08:57 424K
20260509T06Z_MSC_RDPS_AirTemp_IsbL-0400_RLatLon0.09_PT044H.grib2 2026-05-09 08:57 428K
20260509T06Z_MSC_RDPS_AirTemp_IsbL-0450_RLatLon0.09_PT044H.grib2 2026-05-09 08:57 438K
20260509T06Z_MSC_RDPS_AirTemp_IsbL-0500_RLatLon0.09_PT044H.grib2 2026-05-09 08:57 450K
20260509T06Z_MSC_RDPS_AirTemp_IsbL-0550_RLatLon0.09_PT044H.grib2 2026-05-09 08:57 468K
20260509T06Z_MSC_RDPS_AirTemp_IsbL-0600_RLatLon0.09_PT044H.grib2 2026-05-09 08:57 487K
20260509T06Z_MSC_RDPS_AirTemp_IsbL-0650_RLatLon0.09_PT044H.grib2 2026-05-09 08:57 501K
20260509T06Z_MSC_RDPS_AirTemp_IsbL-0700_RLatLon0.09_PT044H.grib2 2026-05-09 08:57 523K
20260509T06Z_MSC_RDPS_AirTemp_IsbL-0750_RLatLon0.09_PT044H.grib2 2026-05-09 08:57 522K
20260509T06Z_MSC_RDPS_AirTemp_IsbL-0800_RLatLon0.09_PT044H.grib2 2026-05-09 08:57 571K
20260509T06Z_MSC_RDPS_AirTemp_IsbL-0850_RLatLon0.09_PT044H.grib2 2026-05-09 08:57 625K
20260509T06Z_MSC_RDPS_AirTemp_IsbL-0875_RLatLon0.09_PT044H.grib2 2026-05-09 08:57 514K
20260509T06Z_MSC_RDPS_AirTemp_IsbL-0900_RLatLon0.09_PT044H.grib2 2026-05-09 08:57 519K
20260509T06Z_MSC_RDPS_AirTemp_IsbL-0925_RLatLon0.09_PT044H.grib2 2026-05-09 08:57 518K
20260509T06Z_MSC_RDPS_AirTemp_IsbL-0950_RLatLon0.09_PT044H.grib2 2026-05-09 08:57 521K
20260509T06Z_MSC_RDPS_AirTemp_IsbL-0970_RLatLon0.09_PT044H.grib2 2026-05-09 08:57 517K
20260509T06Z_MSC_RDPS_AirTemp_IsbL-0985_RLatLon0.09_PT044H.grib2 2026-05-09 08:57 506K
20260509T06Z_MSC_RDPS_AirTemp_IsbL-1000_RLatLon0.09_PT044H.grib2 2026-05-09 08:57 491K
20260509T06Z_MSC_RDPS_AirTemp_IsbL-1015_RLatLon0.09_PT044H.grib2 2026-05-09 08:57 494K
20260509T06Z_MSC_RDPS_Albedo_Sfc_RLatLon0.09_PT044H.grib2 2026-05-09 08:57 159K
20260509T06Z_MSC_RDPS_CAPE_Sfc_RLatLon0.09_PT044H.grib2 2026-05-09 08:57 1.8M
20260509T06Z_MSC_RDPS_CIN_Sfc_RLatLon0.09_PT044H.grib2 2026-05-09 08:57 1.3M
20260509T06Z_MSC_RDPS_CloudWater_EAtm_RLatLon0.09_PT044H.grib2 2026-05-09 08:57 228K
20260509T06Z_MSC_RDPS_ConvectivePrecip-Accum_Sfc_RLatLon0.09_PT044H.grib2 2026-05-09 08:57 1.1M
20260509T06Z_MSC_RDPS_DewPointDepression_AGL-2m_RLatLon0.09_PT044H.grib2 2026-05-09 08:57 401K
20260509T06Z_MSC_RDPS_DewPointDepression_IsbL-0001_RLatLon0.09_PT044H.grib2 2026-05-09 08:57 193
20260509T06Z_MSC_RDPS_DewPointDepression_IsbL-0005_RLatLon0.09_PT044H.grib2 2026-05-09 08:57 193
20260509T06Z_MSC_RDPS_DewPointDepression_IsbL-0010_RLatLon0.09_PT044H.grib2 2026-05-09 08:57 193
20260509T06Z_MSC_RDPS_DewPointDepression_IsbL-0020_RLatLon0.09_PT044H.grib2 2026-05-09 08:57 193
20260509T06Z_MSC_RDPS_DewPointDepression_IsbL-0030_RLatLon0.09_PT044H.grib2 2026-05-09 08:57 193
20260509T06Z_MSC_RDPS_DewPointDepression_IsbL-0050_RLatLon0.09_PT044H.grib2 2026-05-09 08:57 105K
20260509T06Z_MSC_RDPS_DewPointDepression_IsbL-0100_RLatLon0.09_PT044H.grib2 2026-05-09 08:57 111K
20260509T06Z_MSC_RDPS_DewPointDepression_IsbL-0150_RLatLon0.09_PT044H.grib2 2026-05-09 08:57 148K
20260509T06Z_MSC_RDPS_DewPointDepression_IsbL-0175_RLatLon0.09_PT044H.grib2 2026-05-09 08:57 170K
20260509T06Z_MSC_RDPS_DewPointDepression_IsbL-0200_RLatLon0.09_PT044H.grib2 2026-05-09 08:57 217K
20260509T06Z_MSC_RDPS_DewPointDepression_IsbL-0225_RLatLon0.09_PT044H.grib2 2026-05-09 08:57 266K
20260509T06Z_MSC_RDPS_DewPointDepression_IsbL-0250_RLatLon0.09_PT044H.grib2 2026-05-09 08:57 307K
20260509T06Z_MSC_RDPS_DewPointDepression_IsbL-0275_RLatLon0.09_PT044H.grib2 2026-05-09 08:57 313K
20260509T06Z_MSC_RDPS_DewPointDepression_IsbL-0300_RLatLon0.09_PT044H.grib2 2026-05-09 08:57 328K
20260509T06Z_MSC_RDPS_DewPointDepression_IsbL-0350_RLatLon0.09_PT044H.grib2 2026-05-09 08:57 335K
20260509T06Z_MSC_RDPS_DewPointDepression_IsbL-0400_RLatLon0.09_PT044H.grib2 2026-05-09 08:57 349K
20260509T06Z_MSC_RDPS_DewPointDepression_IsbL-0450_RLatLon0.09_PT044H.grib2 2026-05-09 08:57 353K
20260509T06Z_MSC_RDPS_DewPointDepression_IsbL-0500_RLatLon0.09_PT044H.grib2 2026-05-09 08:57 356K
20260509T06Z_MSC_RDPS_DewPointDepression_IsbL-0550_RLatLon0.09_PT044H.grib2 2026-05-09 08:57 369K
20260509T06Z_MSC_RDPS_DewPointDepression_IsbL-0600_RLatLon0.09_PT044H.grib2 2026-05-09 08:57 383K
20260509T06Z_MSC_RDPS_DewPointDepression_IsbL-0650_RLatLon0.09_PT044H.grib2 2026-05-09 08:57 392K
20260509T06Z_MSC_RDPS_DewPointDepression_IsbL-0700_RLatLon0.09_PT044H.grib2 2026-05-09 08:57 399K
20260509T06Z_MSC_RDPS_DewPointDepression_IsbL-0750_RLatLon0.09_PT044H.grib2 2026-05-09 08:57 415K
20260509T06Z_MSC_RDPS_DewPointDepression_IsbL-0800_RLatLon0.09_PT044H.grib2 2026-05-09 08:57 447K
20260509T06Z_MSC_RDPS_DewPointDepression_IsbL-0850_RLatLon0.09_PT044H.grib2 2026-05-09 08:57 468K
20260509T06Z_MSC_RDPS_DewPointDepression_IsbL-0875_RLatLon0.09_PT044H.grib2 2026-05-09 08:57 462K
20260509T06Z_MSC_RDPS_DewPointDepression_IsbL-0900_RLatLon0.09_PT044H.grib2 2026-05-09 08:57 449K
20260509T06Z_MSC_RDPS_DewPointDepression_IsbL-0925_RLatLon0.09_PT044H.grib2 2026-05-09 08:57 441K
20260509T06Z_MSC_RDPS_DewPointDepression_IsbL-0950_RLatLon0.09_PT044H.grib2 2026-05-09 08:57 435K
20260509T06Z_MSC_RDPS_DewPointDepression_IsbL-0970_RLatLon0.09_PT044H.grib2 2026-05-09 08:57 431K
20260509T06Z_MSC_RDPS_DewPointDepression_IsbL-0985_RLatLon0.09_PT044H.grib2 2026-05-09 08:57 425K
20260509T06Z_MSC_RDPS_DewPointDepression_IsbL-1000_RLatLon0.09_PT044H.grib2 2026-05-09 08:57 419K
20260509T06Z_MSC_RDPS_DewPointDepression_IsbL-1015_RLatLon0.09_PT044H.grib2 2026-05-09 08:57 407K
20260509T06Z_MSC_RDPS_DewPoint_AGL-2m_RLatLon0.09_PT044H.grib2 2026-05-09 08:57 390K
20260509T06Z_MSC_RDPS_DownwardLongwaveRadiationFlux-Accum_Sfc_RLatLon0.09_PT044H.grib2 2026-05-09 08:57 396K
20260509T06Z_MSC_RDPS_DownwardShortwaveRadiationFlux-Accum_NTAtm_RLatLon0.09_PT044H.grib2 2026-05-09 08:57 122K
20260509T06Z_MSC_RDPS_DownwardShortwaveRadiationFlux-Accum_Sfc_RLatLon0.09_PT044H.grib2 2026-05-09 08:57 569K
20260509T06Z_MSC_RDPS_FreezingRain-Accum1h_Sfc_RLatLon0.09_PT044H.grib2 2026-05-09 08:57 31K
20260509T06Z_MSC_RDPS_FreezingRain-Accum_Sfc_RLatLon0.09_PT044H.grib2 2026-05-09 08:57 149K
20260509T06Z_MSC_RDPS_GeopotentialHeight_IsbL-0001_RLatLon0.09_PT044H.grib2 2026-05-09 08:57 243K
20260509T06Z_MSC_RDPS_GeopotentialHeight_IsbL-0005_RLatLon0.09_PT044H.grib2 2026-05-09 08:57 307K
20260509T06Z_MSC_RDPS_GeopotentialHeight_IsbL-0010_RLatLon0.09_PT044H.grib2 2026-05-09 08:57 308K
20260509T06Z_MSC_RDPS_GeopotentialHeight_IsbL-0020_RLatLon0.09_PT044H.grib2 2026-05-09 08:57 405K
20260509T06Z_MSC_RDPS_GeopotentialHeight_IsbL-0030_RLatLon0.09_PT044H.grib2 2026-05-09 08:57 310K
20260509T06Z_MSC_RDPS_GeopotentialHeight_IsbL-0050_RLatLon0.09_PT044H.grib2 2026-05-09 08:57 311K
20260509T06Z_MSC_RDPS_GeopotentialHeight_IsbL-0100_RLatLon0.09_PT044H.grib2 2026-05-09 08:57 284K
20260509T06Z_MSC_RDPS_GeopotentialHeight_IsbL-0150_RLatLon0.09_PT044H.grib2 2026-05-09 08:57 226K
20260509T06Z_MSC_RDPS_GeopotentialHeight_IsbL-0175_RLatLon0.09_PT044H.grib2 2026-05-09 08:57 228K
20260509T06Z_MSC_RDPS_GeopotentialHeight_IsbL-0200_RLatLon0.09_PT044H.grib2 2026-05-09 08:57 230K
20260509T06Z_MSC_RDPS_GeopotentialHeight_IsbL-0225_RLatLon0.09_PT044H.grib2 2026-05-09 08:57 262K
20260509T06Z_MSC_RDPS_GeopotentialHeight_IsbL-0250_RLatLon0.09_PT044H.grib2 2026-05-09 08:57 263K
20260509T06Z_MSC_RDPS_GeopotentialHeight_IsbL-0275_RLatLon0.09_PT044H.grib2 2026-05-09 08:57 263K
20260509T06Z_MSC_RDPS_GeopotentialHeight_IsbL-0300_RLatLon0.09_PT044H.grib2 2026-05-09 08:57 234K
20260509T06Z_MSC_RDPS_GeopotentialHeight_IsbL-0350_RLatLon0.09_PT044H.grib2 2026-05-09 08:57 230K
20260509T06Z_MSC_RDPS_GeopotentialHeight_IsbL-0400_RLatLon0.09_PT044H.grib2 2026-05-09 08:57 227K
20260509T06Z_MSC_RDPS_GeopotentialHeight_IsbL-0450_RLatLon0.09_PT044H.grib2 2026-05-09 08:57 296K
20260509T06Z_MSC_RDPS_GeopotentialHeight_IsbL-0500_RLatLon0.09_PT044H.grib2 2026-05-09 08:57 291K
20260509T06Z_MSC_RDPS_GeopotentialHeight_IsbL-0550_RLatLon0.09_PT044H.grib2 2026-05-09 08:57 287K
20260509T06Z_MSC_RDPS_GeopotentialHeight_IsbL-0600_RLatLon0.09_PT044H.grib2 2026-05-09 08:57 284K
20260509T06Z_MSC_RDPS_GeopotentialHeight_IsbL-0650_RLatLon0.09_PT044H.grib2 2026-05-09 08:57 282K
20260509T06Z_MSC_RDPS_GeopotentialHeight_IsbL-0700_RLatLon0.09_PT044H.grib2 2026-05-09 08:57 254K
20260509T06Z_MSC_RDPS_GeopotentialHeight_IsbL-0750_RLatLon0.09_PT044H.grib2 2026-05-09 08:57 255K
20260509T06Z_MSC_RDPS_GeopotentialHeight_IsbL-0800_RLatLon0.09_PT044H.grib2 2026-05-09 08:57 260K
20260509T06Z_MSC_RDPS_GeopotentialHeight_IsbL-0850_RLatLon0.09_PT044H.grib2 2026-05-09 08:57 352K
20260509T06Z_MSC_RDPS_GeopotentialHeight_IsbL-0875_RLatLon0.09_PT044H.grib2 2026-05-09 08:57 356K
20260509T06Z_MSC_RDPS_GeopotentialHeight_IsbL-0900_RLatLon0.09_PT044H.grib2 2026-05-09 08:57 359K
20260509T06Z_MSC_RDPS_GeopotentialHeight_IsbL-0925_RLatLon0.09_PT044H.grib2 2026-05-09 08:57 361K
20260509T06Z_MSC_RDPS_GeopotentialHeight_IsbL-0950_RLatLon0.09_PT044H.grib2 2026-05-09 08:57 363K
20260509T06Z_MSC_RDPS_GeopotentialHeight_IsbL-0970_RLatLon0.09_PT044H.grib2 2026-05-09 08:57 368K
20260509T06Z_MSC_RDPS_GeopotentialHeight_IsbL-0985_RLatLon0.09_PT044H.grib2 2026-05-09 08:57 376K
20260509T06Z_MSC_RDPS_GeopotentialHeight_IsbL-1000_RLatLon0.09_PT044H.grib2 2026-05-09 08:57 388K
20260509T06Z_MSC_RDPS_GeopotentialHeight_IsbL-1015_RLatLon0.09_PT044H.grib2 2026-05-09 08:57 404K
20260509T06Z_MSC_RDPS_HighLowPressure_MSL_RLatLon0.09_PT044H.json 2026-05-09 08:49 24K
20260509T06Z_MSC_RDPS_Humidex_Sfc_RLatLon0.09_PT044H.grib2 2026-05-09 08:57 2.4M
20260509T06Z_MSC_RDPS_IcePellets-Accum1h_Sfc_RLatLon0.09_PT044H.grib2 2026-05-09 08:57 11K
20260509T06Z_MSC_RDPS_IcePellets-Accum_Sfc_RLatLon0.09_PT044H.grib2 2026-05-09 08:57 33K
20260509T06Z_MSC_RDPS_KIndex_Sfc_RLatLon0.09_PT044H.grib2 2026-05-09 08:57 2.5M
20260509T06Z_MSC_RDPS_LatentHeatNetFlux_Sfc_RLatLon0.09_PT044H.grib2 2026-05-09 08:57 339K
20260509T06Z_MSC_RDPS_LiftedIndex-MU-VT_IsbL-0500_RLatLon0.09_PT044H.grib2 2026-05-09 08:57 2.4M
20260509T06Z_MSC_RDPS_NetLongwaveRadiationFlux-Accum_Sfc_RLatLon0.09_PT044H.grib2 2026-05-09 08:57 537K
20260509T06Z_MSC_RDPS_NetShortwaveRadiationFlux-Accum_Sfc_RLatLon0.09_PT044H.grib2 2026-05-09 08:57 567K
20260509T06Z_MSC_RDPS_PlanetaryBoundaryLayerHeight_Sfc_RLatLon0.09_PT044H.grib2 2026-05-09 08:57 1.0M
20260509T06Z_MSC_RDPS_Precip-Accum1h_Sfc_RLatLon0.09_PT044H.grib2 2026-05-09 08:57 1.2M
20260509T06Z_MSC_RDPS_Precip-Accum_Sfc_RLatLon0.09_PT044H.grib2 2026-05-09 08:57 1.9M
20260509T06Z_MSC_RDPS_PrecipRate_Sfc_RLatLon0.09_PT044H.grib2 2026-05-09 08:57 170K
20260509T06Z_MSC_RDPS_PrecipType-Instant_Sfc_RLatLon0.09_PT044H.grib2 2026-05-09 08:57 603K
20260509T06Z_MSC_RDPS_Pressure-Trend3h_Sfc_RLatLon0.09_PT044H.grib2 2026-05-09 08:57 1.2M
20260509T06Z_MSC_RDPS_Pressure_MSL_RLatLon0.09_PT044H.grib2 2026-05-09 08:57 325K
20260509T06Z_MSC_RDPS_Pressure_PVU-1.5_RLatLon0.09_PT044H.grib2 2026-05-09 08:57 2.5M
20260509T06Z_MSC_RDPS_Pressure_PVU-1_RLatLon0.09_PT044H.grib2 2026-05-09 08:57 2.4M
20260509T06Z_MSC_RDPS_Pressure_PVU-2_RLatLon0.09_PT044H.grib2 2026-05-09 08:57 2.4M
20260509T06Z_MSC_RDPS_Pressure_Sfc_RLatLon0.09_PT044H.grib2 2026-05-09 08:57 498K
20260509T06Z_MSC_RDPS_RadiativeTemp_Sfc_RLatLon0.09_PT044H.grib2 2026-05-09 08:57 393K
20260509T06Z_MSC_RDPS_Rain-Accum1h_Sfc_RLatLon0.09_PT044H.grib2 2026-05-09 08:57 576K
20260509T06Z_MSC_RDPS_Rain-Accum_Sfc_RLatLon0.09_PT044H.grib2 2026-05-09 08:57 1.7M
20260509T06Z_MSC_RDPS_RelativeHumidity_AGL-2m_RLatLon0.09_PT044H.grib2 2026-05-09 08:57 1.0M
20260509T06Z_MSC_RDPS_RelativeHumidity_IsbL-0010_RLatLon0.09_PT044H.grib2 2026-05-09 08:57 579K
20260509T06Z_MSC_RDPS_RelativeHumidity_IsbL-0020_RLatLon0.09_PT044H.grib2 2026-05-09 08:57 638K
20260509T06Z_MSC_RDPS_RelativeHumidity_IsbL-0030_RLatLon0.09_PT044H.grib2 2026-05-09 08:57 626K
20260509T06Z_MSC_RDPS_RelativeHumidity_IsbL-0050_RLatLon0.09_PT044H.grib2 2026-05-09 08:57 352K
20260509T06Z_MSC_RDPS_RelativeHumidity_IsbL-0100_RLatLon0.09_PT044H.grib2 2026-05-09 08:57 275K
20260509T06Z_MSC_RDPS_RelativeHumidity_IsbL-0150_RLatLon0.09_PT044H.grib2 2026-05-09 08:57 421K
20260509T06Z_MSC_RDPS_RelativeHumidity_IsbL-0175_RLatLon0.09_PT044H.grib2 2026-05-09 08:57 479K
20260509T06Z_MSC_RDPS_RelativeHumidity_IsbL-0200_RLatLon0.09_PT044H.grib2 2026-05-09 08:57 550K
20260509T06Z_MSC_RDPS_RelativeHumidity_IsbL-0225_RLatLon0.09_PT044H.grib2 2026-05-09 08:57 626K
20260509T06Z_MSC_RDPS_RelativeHumidity_IsbL-0250_RLatLon0.09_PT044H.grib2 2026-05-09 08:57 705K
20260509T06Z_MSC_RDPS_RelativeHumidity_IsbL-0275_RLatLon0.09_PT044H.grib2 2026-05-09 08:57 731K
20260509T06Z_MSC_RDPS_RelativeHumidity_IsbL-0300_RLatLon0.09_PT044H.grib2 2026-05-09 08:57 769K
20260509T06Z_MSC_RDPS_RelativeHumidity_IsbL-0350_RLatLon0.09_PT044H.grib2 2026-05-09 08:57 783K
20260509T06Z_MSC_RDPS_RelativeHumidity_IsbL-0400_RLatLon0.09_PT044H.grib2 2026-05-09 08:57 802K
20260509T06Z_MSC_RDPS_RelativeHumidity_IsbL-0450_RLatLon0.09_PT044H.grib2 2026-05-09 08:57 811K
20260509T06Z_MSC_RDPS_RelativeHumidity_IsbL-0500_RLatLon0.09_PT044H.grib2 2026-05-09 08:57 816K
20260509T06Z_MSC_RDPS_RelativeHumidity_IsbL-0550_RLatLon0.09_PT044H.grib2 2026-05-09 08:57 845K
20260509T06Z_MSC_RDPS_RelativeHumidity_IsbL-0600_RLatLon0.09_PT044H.grib2 2026-05-09 08:57 858K
20260509T06Z_MSC_RDPS_RelativeHumidity_IsbL-0650_RLatLon0.09_PT044H.grib2 2026-05-09 08:57 872K
20260509T06Z_MSC_RDPS_RelativeHumidity_IsbL-0700_RLatLon0.09_PT044H.grib2 2026-05-09 08:57 899K
20260509T06Z_MSC_RDPS_RelativeHumidity_IsbL-0750_RLatLon0.09_PT044H.grib2 2026-05-09 08:57 939K
20260509T06Z_MSC_RDPS_RelativeHumidity_IsbL-0800_RLatLon0.09_PT044H.grib2 2026-05-09 08:57 1.0M
20260509T06Z_MSC_RDPS_RelativeHumidity_IsbL-0850_RLatLon0.09_PT044H.grib2 2026-05-09 08:57 1.0M
20260509T06Z_MSC_RDPS_RelativeHumidity_IsbL-0875_RLatLon0.09_PT044H.grib2 2026-05-09 08:57 1.0M
20260509T06Z_MSC_RDPS_RelativeHumidity_IsbL-0900_RLatLon0.09_PT044H.grib2 2026-05-09 08:57 1.0M
20260509T06Z_MSC_RDPS_RelativeHumidity_IsbL-0925_RLatLon0.09_PT044H.grib2 2026-05-09 08:57 1.0M
20260509T06Z_MSC_RDPS_RelativeHumidity_IsbL-0950_RLatLon0.09_PT044H.grib2 2026-05-09 08:57 1.0M
20260509T06Z_MSC_RDPS_RelativeHumidity_IsbL-0970_RLatLon0.09_PT044H.grib2 2026-05-09 08:57 1.0M
20260509T06Z_MSC_RDPS_RelativeHumidity_IsbL-0985_RLatLon0.09_PT044H.grib2 2026-05-09 08:57 1.0M
20260509T06Z_MSC_RDPS_RelativeHumidity_IsbL-1000_RLatLon0.09_PT044H.grib2 2026-05-09 08:57 1.0M
20260509T06Z_MSC_RDPS_RelativeHumidity_IsbL-1015_RLatLon0.09_PT044H.grib2 2026-05-09 08:57 1.0M
20260509T06Z_MSC_RDPS_Runoff-Accum_Sfc_RLatLon0.09_PT044H.grib2 2026-05-09 08:57 37K
20260509T06Z_MSC_RDPS_SWEATIndex_Sfc_RLatLon0.09_PT044H.grib2 2026-05-09 08:57 2.5M
20260509T06Z_MSC_RDPS_SeeingIndex_EAtm_RLatLon0.09_PT044H.grib2 2026-05-09 08:57 1.0M
20260509T06Z_MSC_RDPS_SensibleHeatNetFlux_Sfc_RLatLon0.09_PT044H.grib2 2026-05-09 08:57 216K
20260509T06Z_MSC_RDPS_ShowalterIndex_IsbL-0500_RLatLon0.09_PT044H.grib2 2026-05-09 08:57 2.6M
20260509T06Z_MSC_RDPS_SkyTransparencyIndex_EAtm_RLatLon0.09_PT044H.grib2 2026-05-09 08:57 714K
20260509T06Z_MSC_RDPS_Snow-Accum1h_Sfc_RLatLon0.09_PT044H.grib2 2026-05-09 08:57 421K
20260509T06Z_MSC_RDPS_Snow-Accum_Sfc_RLatLon0.09_PT044H.grib2 2026-05-09 08:57 626K
20260509T06Z_MSC_RDPS_SnowDensity_Sfc_RLatLon0.09_PT044H.grib2 2026-05-09 08:57 167K
20260509T06Z_MSC_RDPS_SnowDepth_Sfc_RLatLon0.09_PT044H.grib2 2026-05-09 08:57 618K
20260509T06Z_MSC_RDPS_SoilTemp_DBS-0to10cm_RLatLon0.09_PT044H.grib2 2026-05-09 08:57 239K
20260509T06Z_MSC_RDPS_SoilTemp_Sfc_RLatLon0.09_PT044H.grib2 2026-05-09 08:57 265K
20260509T06Z_MSC_RDPS_SoilVolumetricIceContent_Sfc_RLatLon0.09_PT044H.grib2 2026-05-09 08:57 142K
20260509T06Z_MSC_RDPS_SoilVolumetricWaterContent_DBS-0to10cm_RLatLon0.09_PT044H.grib2 2026-05-09 08:57 292K
20260509T06Z_MSC_RDPS_SoilVolumetricWaterContent_DBS-0to1cm_RLatLon0.09_PT044H.grib2 2026-05-09 08:57 345K
20260509T06Z_MSC_RDPS_SpecificHumidity_AGL-120m_RLatLon0.09_PT044H.grib2 2026-05-09 08:57 496K
20260509T06Z_MSC_RDPS_SpecificHumidity_AGL-2m_RLatLon0.09_PT044H.grib2 2026-05-09 08:57 670K
20260509T06Z_MSC_RDPS_SpecificHumidity_AGL-40m_RLatLon0.09_PT044H.grib2 2026-05-09 08:57 503K
20260509T06Z_MSC_RDPS_SpecificHumidity_AGL-80m_RLatLon0.09_PT044H.grib2 2026-05-09 08:57 497K
20260509T06Z_MSC_RDPS_SpecificHumidity_IsbL-0001_RLatLon0.09_PT044H.grib2 2026-05-09 08:57 355K
20260509T06Z_MSC_RDPS_SpecificHumidity_IsbL-0005_RLatLon0.09_PT044H.grib2 2026-05-09 08:57 368K
20260509T06Z_MSC_RDPS_SpecificHumidity_IsbL-0010_RLatLon0.09_PT044H.grib2 2026-05-09 08:57 396K
20260509T06Z_MSC_RDPS_SpecificHumidity_IsbL-0020_RLatLon0.09_PT044H.grib2 2026-05-09 08:57 385K
20260509T06Z_MSC_RDPS_SpecificHumidity_IsbL-0030_RLatLon0.09_PT044H.grib2 2026-05-09 08:57 374K
20260509T06Z_MSC_RDPS_SpecificHumidity_IsbL-0050_RLatLon0.09_PT044H.grib2 2026-05-09 08:57 485K
20260509T06Z_MSC_RDPS_SpecificHumidity_IsbL-0100_RLatLon0.09_PT044H.grib2 2026-05-09 08:57 405K
20260509T06Z_MSC_RDPS_SpecificHumidity_IsbL-0150_RLatLon0.09_PT044H.grib2 2026-05-09 08:57 449K
20260509T06Z_MSC_RDPS_SpecificHumidity_IsbL-0175_RLatLon0.09_PT044H.grib2 2026-05-09 08:57 441K
20260509T06Z_MSC_RDPS_SpecificHumidity_IsbL-0200_RLatLon0.09_PT044H.grib2 2026-05-09 08:57 479K
20260509T06Z_MSC_RDPS_SpecificHumidity_IsbL-0225_RLatLon0.09_PT044H.grib2 2026-05-09 08:57 486K
20260509T06Z_MSC_RDPS_SpecificHumidity_IsbL-0250_RLatLon0.09_PT044H.grib2 2026-05-09 08:57 565K
20260509T06Z_MSC_RDPS_SpecificHumidity_IsbL-0275_RLatLon0.09_PT044H.grib2 2026-05-09 08:57 493K
20260509T06Z_MSC_RDPS_SpecificHumidity_IsbL-0300_RLatLon0.09_PT044H.grib2 2026-05-09 08:57 463K
20260509T06Z_MSC_RDPS_SpecificHumidity_IsbL-0350_RLatLon0.09_PT044H.grib2 2026-05-09 08:57 455K
20260509T06Z_MSC_RDPS_SpecificHumidity_IsbL-0400_RLatLon0.09_PT044H.grib2 2026-05-09 08:57 542K
20260509T06Z_MSC_RDPS_SpecificHumidity_IsbL-0450_RLatLon0.09_PT044H.grib2 2026-05-09 08:57 481K
20260509T06Z_MSC_RDPS_SpecificHumidity_IsbL-0500_RLatLon0.09_PT044H.grib2 2026-05-09 08:57 534K
20260509T06Z_MSC_RDPS_SpecificHumidity_IsbL-0550_RLatLon0.09_PT044H.grib2 2026-05-09 08:57 608K
20260509T06Z_MSC_RDPS_SpecificHumidity_IsbL-0600_RLatLon0.09_PT044H.grib2 2026-05-09 08:57 665K
20260509T06Z_MSC_RDPS_SpecificHumidity_IsbL-0650_RLatLon0.09_PT044H.grib2 2026-05-09 08:57 584K
20260509T06Z_MSC_RDPS_SpecificHumidity_IsbL-0700_RLatLon0.09_PT044H.grib2 2026-05-09 08:57 625K
20260509T06Z_MSC_RDPS_SpecificHumidity_IsbL-0750_RLatLon0.09_PT044H.grib2 2026-05-09 08:57 680K
20260509T06Z_MSC_RDPS_SpecificHumidity_IsbL-0800_RLatLon0.09_PT044H.grib2 2026-05-09 08:57 760K
20260509T06Z_MSC_RDPS_SpecificHumidity_IsbL-0850_RLatLon0.09_PT044H.grib2 2026-05-09 08:57 823K
20260509T06Z_MSC_RDPS_SpecificHumidity_IsbL-0875_RLatLon0.09_PT044H.grib2 2026-05-09 08:57 840K
20260509T06Z_MSC_RDPS_SpecificHumidity_IsbL-0900_RLatLon0.09_PT044H.grib2 2026-05-09 08:57 848K
20260509T06Z_MSC_RDPS_SpecificHumidity_IsbL-0925_RLatLon0.09_PT044H.grib2 2026-05-09 08:57 712K
20260509T06Z_MSC_RDPS_SpecificHumidity_IsbL-0950_RLatLon0.09_PT044H.grib2 2026-05-09 08:57 715K
20260509T06Z_MSC_RDPS_SpecificHumidity_IsbL-0970_RLatLon0.09_PT044H.grib2 2026-05-09 08:57 710K
20260509T06Z_MSC_RDPS_SpecificHumidity_IsbL-0985_RLatLon0.09_PT044H.grib2 2026-05-09 08:57 701K
20260509T06Z_MSC_RDPS_SpecificHumidity_IsbL-1000_RLatLon0.09_PT044H.grib2 2026-05-09 08:57 695K
20260509T06Z_MSC_RDPS_SpecificHumidity_IsbL-1015_RLatLon0.09_PT044H.grib2 2026-05-09 08:57 685K
20260509T06Z_MSC_RDPS_SpecificHumidity_Sfc_RLatLon0.09_PT044H.grib2 2026-05-09 08:57 337K
20260509T06Z_MSC_RDPS_StormRelativeHelicity_EtaL-10000_RLatLon0.09_PT044H.grib2 2026-05-09 08:57 1.1M
20260509T06Z_MSC_RDPS_StormSeverityIndex_EtaL-10000_RLatLon0.09_PT044H.grib2 2026-05-09 08:57 1.1M
20260509T06Z_MSC_RDPS_Thickness_IsbL-0850to0700_RLatLon0.09_PT044H.grib2 2026-05-09 08:57 246K
20260509T06Z_MSC_RDPS_Thickness_IsbL-1000to0500_RLatLon0.09_PT044H.grib2 2026-05-09 08:57 192K
20260509T06Z_MSC_RDPS_Thickness_IsbL-1000to0850_RLatLon0.09_PT044H.grib2 2026-05-09 08:57 258K
20260509T06Z_MSC_RDPS_TotalCloudCover_Sfc_RLatLon0.09_PT044H.grib2 2026-05-09 08:57 677K
20260509T06Z_MSC_RDPS_TotalTotalsIndex_Sfc_RLatLon0.09_PT044H.grib2 2026-05-09 08:57 2.4M
20260509T06Z_MSC_RDPS_UVIndex-ClearSky_Sfc_RLatLon0.09_PT044H.grib2 2026-05-09 08:57 127K
20260509T06Z_MSC_RDPS_UVIndex_Sfc_RLatLon0.09_PT044H.grib2 2026-05-09 08:57 269K
20260509T06Z_MSC_RDPS_UpwardLongwaveRadiationFlux_NTAtm_RLatLon0.09_PT044H.grib2 2026-05-09 08:57 499K
20260509T06Z_MSC_RDPS_UpwardShortwaveRadiationFlux_NTAtm_RLatLon0.09_PT044H.grib2 2026-05-09 08:57 250K
20260509T06Z_MSC_RDPS_VerticalVelocity_IsbL-0250_RLatLon0.09_PT044H.grib2 2026-05-09 08:57 443K
20260509T06Z_MSC_RDPS_VerticalVelocity_IsbL-0500_RLatLon0.09_PT044H.grib2 2026-05-09 08:57 540K
20260509T06Z_MSC_RDPS_VerticalVelocity_IsbL-0700_RLatLon0.09_PT044H.grib2 2026-05-09 08:57 595K
20260509T06Z_MSC_RDPS_VerticalVelocity_IsbL-0850_RLatLon0.09_PT044H.grib2 2026-05-09 08:57 649K
20260509T06Z_MSC_RDPS_VerticalWindShear_EtaL-6500_RLatLon0.09_PT044H.grib2 2026-05-09 08:57 1.2M
20260509T06Z_MSC_RDPS_WindChill_Sfc_RLatLon0.09_PT044H.grib2 2026-05-09 08:57 1.2M
20260509T06Z_MSC_RDPS_WindDir_AGL-10m_RLatLon0.09_PT044H.grib2 2026-05-09 08:57 953K
20260509T06Z_MSC_RDPS_WindDir_AGL-120m_RLatLon0.09_PT044H.grib2 2026-05-09 08:57 598K
20260509T06Z_MSC_RDPS_WindDir_AGL-40m_RLatLon0.09_PT044H.grib2 2026-05-09 08:57 626K
20260509T06Z_MSC_RDPS_WindDir_AGL-80m_RLatLon0.09_PT044H.grib2 2026-05-09 08:57 609K
20260509T06Z_MSC_RDPS_WindDir_IsbL-0001_RLatLon0.09_PT044H.grib2 2026-05-09 08:57 281K
20260509T06Z_MSC_RDPS_WindDir_IsbL-0005_RLatLon0.09_PT044H.grib2 2026-05-09 08:57 372K
20260509T06Z_MSC_RDPS_WindDir_IsbL-0010_RLatLon0.09_PT044H.grib2 2026-05-09 08:57 410K
20260509T06Z_MSC_RDPS_WindDir_IsbL-0020_RLatLon0.09_PT044H.grib2 2026-05-09 08:57 441K
20260509T06Z_MSC_RDPS_WindDir_IsbL-0030_RLatLon0.09_PT044H.grib2 2026-05-09 08:57 447K
20260509T06Z_MSC_RDPS_WindDir_IsbL-0050_RLatLon0.09_PT044H.grib2 2026-05-09 08:57 443K
20260509T06Z_MSC_RDPS_WindDir_IsbL-0100_RLatLon0.09_PT044H.grib2 2026-05-09 08:57 425K
20260509T06Z_MSC_RDPS_WindDir_IsbL-0150_RLatLon0.09_PT044H.grib2 2026-05-09 08:57 429K
20260509T06Z_MSC_RDPS_WindDir_IsbL-0175_RLatLon0.09_PT044H.grib2 2026-05-09 08:57 451K
20260509T06Z_MSC_RDPS_WindDir_IsbL-0200_RLatLon0.09_PT044H.grib2 2026-05-09 08:57 466K
20260509T06Z_MSC_RDPS_WindDir_IsbL-0225_RLatLon0.09_PT044H.grib2 2026-05-09 08:57 470K
20260509T06Z_MSC_RDPS_WindDir_IsbL-0250_RLatLon0.09_PT044H.grib2 2026-05-09 08:57 470K
20260509T06Z_MSC_RDPS_WindDir_IsbL-0275_RLatLon0.09_PT044H.grib2 2026-05-09 08:57 493K
20260509T06Z_MSC_RDPS_WindDir_IsbL-0300_RLatLon0.09_PT044H.grib2 2026-05-09 08:57 493K
20260509T06Z_MSC_RDPS_WindDir_IsbL-0350_RLatLon0.09_PT044H.grib2 2026-05-09 08:57 518K
20260509T06Z_MSC_RDPS_WindDir_IsbL-0400_RLatLon0.09_PT044H.grib2 2026-05-09 08:57 540K
20260509T06Z_MSC_RDPS_WindDir_IsbL-0450_RLatLon0.09_PT044H.grib2 2026-05-09 08:57 553K
20260509T06Z_MSC_RDPS_WindDir_IsbL-0500_RLatLon0.09_PT044H.grib2 2026-05-09 08:57 571K
20260509T06Z_MSC_RDPS_WindDir_IsbL-0550_RLatLon0.09_PT044H.grib2 2026-05-09 08:57 586K
20260509T06Z_MSC_RDPS_WindDir_IsbL-0600_RLatLon0.09_PT044H.grib2 2026-05-09 08:57 612K
20260509T06Z_MSC_RDPS_WindDir_IsbL-0650_RLatLon0.09_PT044H.grib2 2026-05-09 08:57 648K
20260509T06Z_MSC_RDPS_WindDir_IsbL-0700_RLatLon0.09_PT044H.grib2 2026-05-09 08:57 686K
20260509T06Z_MSC_RDPS_WindDir_IsbL-0750_RLatLon0.09_PT044H.grib2 2026-05-09 08:57 728K
20260509T06Z_MSC_RDPS_WindDir_IsbL-0800_RLatLon0.09_PT044H.grib2 2026-05-09 08:57 791K
20260509T06Z_MSC_RDPS_WindDir_IsbL-0850_RLatLon0.09_PT044H.grib2 2026-05-09 08:57 853K
20260509T06Z_MSC_RDPS_WindDir_IsbL-0875_RLatLon0.09_PT044H.grib2 2026-05-09 08:57 871K
20260509T06Z_MSC_RDPS_WindDir_IsbL-0900_RLatLon0.09_PT044H.grib2 2026-05-09 08:57 885K
20260509T06Z_MSC_RDPS_WindDir_IsbL-0925_RLatLon0.09_PT044H.grib2 2026-05-09 08:57 897K
20260509T06Z_MSC_RDPS_WindDir_IsbL-0950_RLatLon0.09_PT044H.grib2 2026-05-09 08:57 900K
20260509T06Z_MSC_RDPS_WindDir_IsbL-0970_RLatLon0.09_PT044H.grib2 2026-05-09 08:57 903K
20260509T06Z_MSC_RDPS_WindDir_IsbL-0985_RLatLon0.09_PT044H.grib2 2026-05-09 08:57 914K
20260509T06Z_MSC_RDPS_WindDir_IsbL-1000_RLatLon0.09_PT044H.grib2 2026-05-09 08:57 930K
20260509T06Z_MSC_RDPS_WindDir_IsbL-1015_RLatLon0.09_PT044H.grib2 2026-05-09 08:57 947K
20260509T06Z_MSC_RDPS_WindGust-Max_AGL-10m_RLatLon0.09_PT044H.grib2 2026-05-09 08:57 1.0M
20260509T06Z_MSC_RDPS_WindGust-Min_AGL-10m_RLatLon0.09_PT044H.grib2 2026-05-09 08:57 972K
20260509T06Z_MSC_RDPS_WindGust_AGL-10m_RLatLon0.09_PT044H.grib2 2026-05-09 08:57 1.0M
20260509T06Z_MSC_RDPS_WindSpeed_AGL-10m_RLatLon0.09_PT044H.grib2 2026-05-09 08:57 833K
20260509T06Z_MSC_RDPS_WindSpeed_AGL-120m_RLatLon0.09_PT044H.grib2 2026-05-09 08:57 535K
20260509T06Z_MSC_RDPS_WindSpeed_AGL-40m_RLatLon0.09_PT044H.grib2 2026-05-09 08:57 539K
20260509T06Z_MSC_RDPS_WindSpeed_AGL-80m_RLatLon0.09_PT044H.grib2 2026-05-09 08:57 536K
20260509T06Z_MSC_RDPS_WindSpeed_IsbL-0001_RLatLon0.09_PT044H.grib2 2026-05-09 08:57 252K
20260509T06Z_MSC_RDPS_WindSpeed_IsbL-0005_RLatLon0.09_PT044H.grib2 2026-05-09 08:57 389K
20260509T06Z_MSC_RDPS_WindSpeed_IsbL-0010_RLatLon0.09_PT044H.grib2 2026-05-09 08:57 401K
20260509T06Z_MSC_RDPS_WindSpeed_IsbL-0020_RLatLon0.09_PT044H.grib2 2026-05-09 08:57 327K
20260509T06Z_MSC_RDPS_WindSpeed_IsbL-0030_RLatLon0.09_PT044H.grib2 2026-05-09 08:57 324K
20260509T06Z_MSC_RDPS_WindSpeed_IsbL-0050_RLatLon0.09_PT044H.grib2 2026-05-09 08:57 451K
20260509T06Z_MSC_RDPS_WindSpeed_IsbL-0100_RLatLon0.09_PT044H.grib2 2026-05-09 08:57 471K
20260509T06Z_MSC_RDPS_WindSpeed_IsbL-0150_RLatLon0.09_PT044H.grib2 2026-05-09 08:57 375K
20260509T06Z_MSC_RDPS_WindSpeed_IsbL-0175_RLatLon0.09_PT044H.grib2 2026-05-09 08:57 402K
20260509T06Z_MSC_RDPS_WindSpeed_IsbL-0200_RLatLon0.09_PT044H.grib2 2026-05-09 08:57 439K
20260509T06Z_MSC_RDPS_WindSpeed_IsbL-0225_RLatLon0.09_PT044H.grib2 2026-05-09 08:57 447K
20260509T06Z_MSC_RDPS_WindSpeed_IsbL-0250_RLatLon0.09_PT044H.grib2 2026-05-09 08:57 451K
20260509T06Z_MSC_RDPS_WindSpeed_IsbL-0275_RLatLon0.09_PT044H.grib2 2026-05-09 08:57 471K
20260509T06Z_MSC_RDPS_WindSpeed_IsbL-0300_RLatLon0.09_PT044H.grib2 2026-05-09 08:57 470K
20260509T06Z_MSC_RDPS_WindSpeed_IsbL-0350_RLatLon0.09_PT044H.grib2 2026-05-09 08:57 479K
20260509T06Z_MSC_RDPS_WindSpeed_IsbL-0400_RLatLon0.09_PT044H.grib2 2026-05-09 08:57 483K
20260509T06Z_MSC_RDPS_WindSpeed_IsbL-0450_RLatLon0.09_PT044H.grib2 2026-05-09 08:57 469K
20260509T06Z_MSC_RDPS_WindSpeed_IsbL-0500_RLatLon0.09_PT044H.grib2 2026-05-09 08:57 471K
20260509T06Z_MSC_RDPS_WindSpeed_IsbL-0550_RLatLon0.09_PT044H.grib2 2026-05-09 08:57 472K
20260509T06Z_MSC_RDPS_WindSpeed_IsbL-0600_RLatLon0.09_PT044H.grib2 2026-05-09 08:57 600K
20260509T06Z_MSC_RDPS_WindSpeed_IsbL-0650_RLatLon0.09_PT044H.grib2 2026-05-09 08:57 617K
20260509T06Z_MSC_RDPS_WindSpeed_IsbL-0700_RLatLon0.09_PT044H.grib2 2026-05-09 08:57 683K
20260509T06Z_MSC_RDPS_WindSpeed_IsbL-0750_RLatLon0.09_PT044H.grib2 2026-05-09 08:57 712K
20260509T06Z_MSC_RDPS_WindSpeed_IsbL-0800_RLatLon0.09_PT044H.grib2 2026-05-09 08:57 759K
20260509T06Z_MSC_RDPS_WindSpeed_IsbL-0850_RLatLon0.09_PT044H.grib2 2026-05-09 08:57 812K
20260509T06Z_MSC_RDPS_WindSpeed_IsbL-0875_RLatLon0.09_PT044H.grib2 2026-05-09 08:57 831K
20260509T06Z_MSC_RDPS_WindSpeed_IsbL-0900_RLatLon0.09_PT044H.grib2 2026-05-09 08:57 845K
20260509T06Z_MSC_RDPS_WindSpeed_IsbL-0925_RLatLon0.09_PT044H.grib2 2026-05-09 08:57 858K
20260509T06Z_MSC_RDPS_WindSpeed_IsbL-0950_RLatLon0.09_PT044H.grib2 2026-05-09 08:57 861K
20260509T06Z_MSC_RDPS_WindSpeed_IsbL-0970_RLatLon0.09_PT044H.grib2 2026-05-09 08:57 859K
20260509T06Z_MSC_RDPS_WindSpeed_IsbL-0985_RLatLon0.09_PT044H.grib2 2026-05-09 08:57 852K
20260509T06Z_MSC_RDPS_WindSpeed_IsbL-1000_RLatLon0.09_PT044H.grib2 2026-05-09 08:57 843K
20260509T06Z_MSC_RDPS_WindSpeed_IsbL-1015_RLatLon0.09_PT044H.grib2 2026-05-09 08:57 835K
20260509T06Z_MSC_RDPS_WindU_AGL-10m_RLatLon0.09_PT044H.grib2 2026-05-09 08:57 431K
20260509T06Z_MSC_RDPS_WindU_AGL-120m_RLatLon0.09_PT044H.grib2 2026-05-09 08:57 535K
20260509T06Z_MSC_RDPS_WindU_AGL-40m_RLatLon0.09_PT044H.grib2 2026-05-09 08:57 538K
20260509T06Z_MSC_RDPS_WindU_AGL-80m_RLatLon0.09_PT044H.grib2 2026-05-09 08:57 536K
20260509T06Z_MSC_RDPS_WindU_IsbL-0001_RLatLon0.09_PT044H.grib2 2026-05-09 08:57 244K
20260509T06Z_MSC_RDPS_WindU_IsbL-0005_RLatLon0.09_PT044H.grib2 2026-05-09 08:57 289K
20260509T06Z_MSC_RDPS_WindU_IsbL-0010_RLatLon0.09_PT044H.grib2 2026-05-09 08:57 299K
20260509T06Z_MSC_RDPS_WindU_IsbL-0020_RLatLon0.09_PT044H.grib2 2026-05-09 08:57 356K
20260509T06Z_MSC_RDPS_WindU_IsbL-0030_RLatLon0.09_PT044H.grib2 2026-05-09 08:57 354K
20260509T06Z_MSC_RDPS_WindU_IsbL-0050_RLatLon0.09_PT044H.grib2 2026-05-09 08:57 341K
20260509T06Z_MSC_RDPS_WindU_IsbL-0100_RLatLon0.09_PT044H.grib2 2026-05-09 08:57 427K
20260509T06Z_MSC_RDPS_WindU_IsbL-0150_RLatLon0.09_PT044H.grib2 2026-05-09 08:57 393K
20260509T06Z_MSC_RDPS_WindU_IsbL-0175_RLatLon0.09_PT044H.grib2 2026-05-09 08:57 416K
20260509T06Z_MSC_RDPS_WindU_IsbL-0200_RLatLon0.09_PT044H.grib2 2026-05-09 08:57 432K
20260509T06Z_MSC_RDPS_WindU_IsbL-0225_RLatLon0.09_PT044H.grib2 2026-05-09 08:57 440K
20260509T06Z_MSC_RDPS_WindU_IsbL-0250_RLatLon0.09_PT044H.grib2 2026-05-09 08:57 441K
20260509T06Z_MSC_RDPS_WindU_IsbL-0275_RLatLon0.09_PT044H.grib2 2026-05-09 08:57 358K
20260509T06Z_MSC_RDPS_WindU_IsbL-0300_RLatLon0.09_PT044H.grib2 2026-05-09 08:57 457K
20260509T06Z_MSC_RDPS_WindU_IsbL-0350_RLatLon0.09_PT044H.grib2 2026-05-09 08:57 467K
20260509T06Z_MSC_RDPS_WindU_IsbL-0400_RLatLon0.09_PT044H.grib2 2026-05-09 08:57 471K
20260509T06Z_MSC_RDPS_WindU_IsbL-0450_RLatLon0.09_PT044H.grib2 2026-05-09 08:57 474K
20260509T06Z_MSC_RDPS_WindU_IsbL-0500_RLatLon0.09_PT044H.grib2 2026-05-09 08:57 476K
20260509T06Z_MSC_RDPS_WindU_IsbL-0550_RLatLon0.09_PT044H.grib2 2026-05-09 08:57 461K
20260509T06Z_MSC_RDPS_WindU_IsbL-0600_RLatLon0.09_PT044H.grib2 2026-05-09 08:57 470K
20260509T06Z_MSC_RDPS_WindU_IsbL-0650_RLatLon0.09_PT044H.grib2 2026-05-09 08:57 607K
20260509T06Z_MSC_RDPS_WindU_IsbL-0700_RLatLon0.09_PT044H.grib2 2026-05-09 08:57 507K
20260509T06Z_MSC_RDPS_WindU_IsbL-0750_RLatLon0.09_PT044H.grib2 2026-05-09 08:57 534K
20260509T06Z_MSC_RDPS_WindU_IsbL-0800_RLatLon0.09_PT044H.grib2 2026-05-09 08:57 574K
20260509T06Z_MSC_RDPS_WindU_IsbL-0850_RLatLon0.09_PT044H.grib2 2026-05-09 08:57 621K
20260509T06Z_MSC_RDPS_WindU_IsbL-0875_RLatLon0.09_PT044H.grib2 2026-05-09 08:57 637K
20260509T06Z_MSC_RDPS_WindU_IsbL-0900_RLatLon0.09_PT044H.grib2 2026-05-09 08:57 647K
20260509T06Z_MSC_RDPS_WindU_IsbL-0925_RLatLon0.09_PT044H.grib2 2026-05-09 08:57 656K
20260509T06Z_MSC_RDPS_WindU_IsbL-0950_RLatLon0.09_PT044H.grib2 2026-05-09 08:57 655K
20260509T06Z_MSC_RDPS_WindU_IsbL-0970_RLatLon0.09_PT044H.grib2 2026-05-09 08:57 652K
20260509T06Z_MSC_RDPS_WindU_IsbL-0985_RLatLon0.09_PT044H.grib2 2026-05-09 08:57 787K
20260509T06Z_MSC_RDPS_WindU_IsbL-1000_RLatLon0.09_PT044H.grib2 2026-05-09 08:57 780K
20260509T06Z_MSC_RDPS_WindU_IsbL-1015_RLatLon0.09_PT044H.grib2 2026-05-09 08:57 821K
20260509T06Z_MSC_RDPS_WindV_AGL-10m_RLatLon0.09_PT044H.grib2 2026-05-09 08:57 425K
20260509T06Z_MSC_RDPS_WindV_AGL-120m_RLatLon0.09_PT044H.grib2 2026-05-09 08:57 529K
20260509T06Z_MSC_RDPS_WindV_AGL-40m_RLatLon0.09_PT044H.grib2 2026-05-09 08:57 531K
20260509T06Z_MSC_RDPS_WindV_AGL-80m_RLatLon0.09_PT044H.grib2 2026-05-09 08:57 530K
20260509T06Z_MSC_RDPS_WindV_IsbL-0001_RLatLon0.09_PT044H.grib2 2026-05-09 08:57 295K
20260509T06Z_MSC_RDPS_WindV_IsbL-0005_RLatLon0.09_PT044H.grib2 2026-05-09 08:57 289K
20260509T06Z_MSC_RDPS_WindV_IsbL-0010_RLatLon0.09_PT044H.grib2 2026-05-09 08:57 301K
20260509T06Z_MSC_RDPS_WindV_IsbL-0020_RLatLon0.09_PT044H.grib2 2026-05-09 08:57 319K
20260509T06Z_MSC_RDPS_WindV_IsbL-0030_RLatLon0.09_PT044H.grib2 2026-05-09 08:57 316K
20260509T06Z_MSC_RDPS_WindV_IsbL-0050_RLatLon0.09_PT044H.grib2 2026-05-09 08:57 340K
20260509T06Z_MSC_RDPS_WindV_IsbL-0100_RLatLon0.09_PT044H.grib2 2026-05-09 08:57 424K
20260509T06Z_MSC_RDPS_WindV_IsbL-0150_RLatLon0.09_PT044H.grib2 2026-05-09 08:57 391K
20260509T06Z_MSC_RDPS_WindV_IsbL-0175_RLatLon0.09_PT044H.grib2 2026-05-09 08:57 416K
20260509T06Z_MSC_RDPS_WindV_IsbL-0200_RLatLon0.09_PT044H.grib2 2026-05-09 08:57 333K
20260509T06Z_MSC_RDPS_WindV_IsbL-0225_RLatLon0.09_PT044H.grib2 2026-05-09 08:57 337K
20260509T06Z_MSC_RDPS_WindV_IsbL-0250_RLatLon0.09_PT044H.grib2 2026-05-09 08:57 365K
20260509T06Z_MSC_RDPS_WindV_IsbL-0275_RLatLon0.09_PT044H.grib2 2026-05-09 08:57 381K
20260509T06Z_MSC_RDPS_WindV_IsbL-0300_RLatLon0.09_PT044H.grib2 2026-05-09 08:57 355K
20260509T06Z_MSC_RDPS_WindV_IsbL-0350_RLatLon0.09_PT044H.grib2 2026-05-09 08:57 362K
20260509T06Z_MSC_RDPS_WindV_IsbL-0400_RLatLon0.09_PT044H.grib2 2026-05-09 08:57 469K
20260509T06Z_MSC_RDPS_WindV_IsbL-0450_RLatLon0.09_PT044H.grib2 2026-05-09 08:57 471K
20260509T06Z_MSC_RDPS_WindV_IsbL-0500_RLatLon0.09_PT044H.grib2 2026-05-09 08:57 473K
20260509T06Z_MSC_RDPS_WindV_IsbL-0550_RLatLon0.09_PT044H.grib2 2026-05-09 08:57 474K
20260509T06Z_MSC_RDPS_WindV_IsbL-0600_RLatLon0.09_PT044H.grib2 2026-05-09 08:57 483K
20260509T06Z_MSC_RDPS_WindV_IsbL-0650_RLatLon0.09_PT044H.grib2 2026-05-09 08:57 499K
20260509T06Z_MSC_RDPS_WindV_IsbL-0700_RLatLon0.09_PT044H.grib2 2026-05-09 08:57 517K
20260509T06Z_MSC_RDPS_WindV_IsbL-0750_RLatLon0.09_PT044H.grib2 2026-05-09 08:57 541K
20260509T06Z_MSC_RDPS_WindV_IsbL-0800_RLatLon0.09_PT044H.grib2 2026-05-09 08:57 579K
20260509T06Z_MSC_RDPS_WindV_IsbL-0850_RLatLon0.09_PT044H.grib2 2026-05-09 08:57 614K
20260509T06Z_MSC_RDPS_WindV_IsbL-0875_RLatLon0.09_PT044H.grib2 2026-05-09 08:57 630K
20260509T06Z_MSC_RDPS_WindV_IsbL-0900_RLatLon0.09_PT044H.grib2 2026-05-09 08:57 642K
20260509T06Z_MSC_RDPS_WindV_IsbL-0925_RLatLon0.09_PT044H.grib2 2026-05-09 08:57 650K
20260509T06Z_MSC_RDPS_WindV_IsbL-0950_RLatLon0.09_PT044H.grib2 2026-05-09 08:57 649K
20260509T06Z_MSC_RDPS_WindV_IsbL-0970_RLatLon0.09_PT044H.grib2 2026-05-09 08:57 784K
20260509T06Z_MSC_RDPS_WindV_IsbL-0985_RLatLon0.09_PT044H.grib2 2026-05-09 08:57 781K
20260509T06Z_MSC_RDPS_WindV_IsbL-1000_RLatLon0.09_PT044H.grib2 2026-05-09 08:57 820K
20260509T06Z_MSC_RDPS_WindV_IsbL-1015_RLatLon0.09_PT044H.grib2 2026-05-09 08:57 814K